Total_Precipitation_Accumulation
1.26 1.44 1.44 1.32 1.30 1.33 1.43 1.59 1.72 1.58 1.44 1.34 1.23 1.15 1.22 1.33 1.34 1.18 1.11 1.19 1.05 0.86 0.77 0.74 0.75 0.79 0.83 0.86 0.91 0.98 1.04 1.10 1.21 1.38 1.65 1.99 2.27 2.59
1.51 1.62 1.60 1.54 1.52 1.44 1.47 1.57 1.70 1.75 1.54 1.27 1.24 1.18 1.16 1.03 1.12 1.01 0.97 1.10 0.99 0.90 0.83 0.77 0.72 0.73 0.74 0.74 0.72 0.74 0.79 0.81 0.83 0.88 0.98 1.14 1.33 1.59
1.65 1.77 1.79 1.88 1.87 1.69 1.62 1.58 1.63 1.75 1.58 1.33 1.29 1.23 1.10 0.98 0.98 0.93 0.88 0.88 0.85 0.90 0.81 0.73 0.67 0.64 0.65 0.67 0.68 0.68 0.68 0.68 0.71 0.75 0.80 0.86 0.90 0.98
1.74 1.96 1.97 1.94 1.85 1.72 1.73 1.65 1.61 1.76 1.68 1.51 1.48 1.38 1.29 1.14 1.07 1.02 0.88 0.85 0.88 1.02 0.92 0.77 0.70 0.66 0.62 0.61 0.61 0.63 0.67 0.70 0.70 0.72 0.75 0.78 0.80 0.80
1.80 1.86 1.86 1.92 1.83 1.77 1.69 1.65 1.62 1.76 1.87 1.74 1.71 1.69 1.56 1.39 1.29 1.16 1.02 1.00 0.86 0.88 0.88 0.80 0.75 0.70 0.68 0.67 0.67 0.66 0.64 0.63 0.64 0.67 0.70 0.76 0.78 0.79
1.78 1.85 1.87 1.86 1.91 1.99 1.87 1.83 1.87 1.94 2.01 1.97 1.90 1.99 1.91 1.70 1.52 1.34 1.17 1.07 0.97 0.80 0.83 0.85 0.80 0.73 0.66 0.61 0.58 0.58 0.61 0.61 0.60 0.61 0.62 0.66 0.74 0.82
1.74 1.70 1.76 1.93 2.01 2.03 1.88 1.88 1.99 1.98 1.95 1.97 1.94 2.03 2.04 1.90 1.60 1.34 1.25 1.21 1.13 0.98 0.90 0.79 0.77 0.75 0.72 0.71 0.69 0.66 0.61 0.60 0.60 0.59 0.60 0.65 0.71 0.84
1.68 1.61 1.54 1.57 1.67 1.76 1.72 1.65 1.69 1.76 1.82 1.84 1.86 1.91 1.96 1.86 1.68 1.49 1.37 1.27 1.22 1.17 1.18 1.12 0.98 0.97 0.86 0.76 0.80 0.76 0.71 0.67 0.66 0.65 0.65 0.66 0.71 0.83
1.38 1.34 1.17 1.10 1.32 1.40 1.54 1.53 1.43 1.40 1.43 1.56 1.68 1.71 1.84 1.89 1.85 1.66 1.59 1.49 1.32 1.28 1.31 1.30 1.21 1.10 0.92 0.88 0.96 0.84 0.80 0.78 0.77 0.77 0.74 0.69 0.66 0.67
1.16 1.11 1.11 1.10 1.15 1.26 1.32 1.33 1.29 1.25 1.24 1.26 1.36 1.55 1.72 1.88 1.88 1.79 1.74 1.62 1.43 1.32 1.31 1.33 1.25 1.16 1.02 0.96 1.02 0.92 0.85 0.82 0.80 0.85 0.93 0.90 0.75 0.67
1.19 1.23 1.23 1.13 1.19 1.15 1.14 1.16 1.17 1.23 1.23 1.23 1.25 1.43 1.61 1.73 1.86 1.82 1.75 1.65 1.48 1.34 1.27 1.24 1.21 1.24 1.17 1.04 0.94 0.89 0.75 0.69 0.66 0.67 0.80 1.04 1.12 0.94
1.33 1.28 1.21 1.08 1.04 0.98 0.99 1.07 1.05 1.06 1.15 1.18 1.19 1.29 1.42 1.55 1.70 1.67 1.58 1.59 1.45 1.32 1.18 1.17 1.15 1.19 1.22 1.06 0.90 0.78 0.69 0.66 0.63 0.64 0.79 1.11 1.26 1.11
1.31 1.26 1.21 1.12 0.96 0.91 0.86 0.89 0.92 0.98 1.04 1.09 1.19 1.30 1.44 1.56 1.58 1.57 1.56 1.46 1.39 1.19 1.00 1.07 1.06 1.01 0.98 0.91 0.81 0.74 0.67 0.62 0.60 0.62 0.70 0.95 1.19 1.14
1.47 1.37 1.30 1.17 0.95 0.89 0.80 0.81 0.84 0.83 0.94 1.04 1.10 1.20 1.32 1.46 1.56 1.62 1.63 1.50 1.32 1.19 1.10 1.09 1.05 1.00 0.92 0.83 0.77 0.71 0.71 0.66 0.62 0.60 0.61 0.75 0.88 1.12
1.49 1.56 1.40 1.24 1.06 0.93 0.92 0.89 0.82 0.77 0.91 1.02 1.02 1.06 1.13 1.27 1.53 1.74 1.83 1.76 1.48 1.20 1.08 1.02 0.95 0.93 0.92 0.79 0.68 0.62 0.65 0.68 0.64 0.63 0.64 0.67 0.78 0.98
1.51 1.56 1.43 1.31 1.14 0.99 0.96 0.87 0.77 0.76 0.83 0.93 1.01 1.07 1.18 1.27 1.40 1.57 1.75 1.78 1.61 1.24 1.04 0.97 0.92 0.93 0.90 0.79 0.69 0.61 0.57 0.62 0.66 0.69 0.77 0.80 0.91 1.02
1.58 1.65 1.59 1.47 1.36 1.22 1.12 1.05 1.00 0.95 0.90 0.91 1.03 1.09 1.14 1.15 1.21 1.34 1.55 1.64 1.51 1.17 0.96 0.94 0.99 1.01 0.98 0.97 0.85 0.67 0.61 0.58 0.61 0.73 0.85 0.88 0.91 0.93
1.38 1.55 1.54 1.44 1.36 1.32 1.28 1.21 1.15 1.07 1.01 1.00 1.02 1.06 1.07 1.10 1.16 1.25 1.35 1.44 1.40 1.20 1.02 0.91 0.99 1.08 1.04 0.96 0.83 0.69 0.63 0.62 0.63 0.76 0.83 0.82 0.79 0.81
1.09 1.27 1.28 1.24 1.22 1.24 1.21 1.12 1.04 1.04 1.06 1.03 0.98 1.02 1.08 1.10 1.14 1.21 1.27 1.36 1.40 1.35 1.20 1.05 1.01 1.01 0.92 0.75 0.66 0.63 0.63 0.65 0.71 0.75 0.78 0.77 0.71 0.70
0.91 1.05 1.10 1.11 1.13 1.18 1.17 1.15 1.11 1.12 1.13 1.09 1.07 1.09 1.16 1.20 1.19 1.21 1.29 1.31 1.35 1.36 1.32 1.16 1.00 0.92 0.83 0.73 0.67 0.60 0.55 0.61 0.69 0.71 0.72 0.75 0.72 0.71
0.94 1.00 1.05 1.06 1.09 1.16 1.17 1.17 1.17 1.18 1.17 1.17 1.18 1.19 1.25 1.31 1.22 1.16 1.21 1.26 1.22 1.25 1.21 1.08 0.98 1.00 1.03 1.02 0.83 0.63 0.59 0.57 0.61 0.66 0.72 0.78 0.75 0.75
1.01 1.01 1.06 1.08 1.09 1.10 1.13 1.13 1.15 1.18 1.18 1.18 1.24 1.27 1.27 1.27 1.19 1.16 1.15 1.20 1.15 1.11 1.12 1.17 1.27 1.28 1.18 1.06 0.85 0.72 0.70 0.68 0.67 0.65 0.63 0.65 0.65 0.62
1.02 1.03 1.04 1.01 1.01 1.03 1.06 1.07 1.14 1.18 1.17 1.17 1.21 1.26 1.26 1.23 1.18 1.16 1.15 1.16 1.19 1.21 1.28 1.34 1.41 1.36 1.18 1.07 0.94 0.85 0.82 0.81 0.77 0.72 0.66 0.59 0.52 0.47